TimeAKDT,TemperatureF,Dew PointF,Humidity,Sea Level PressureIn,VisibilityMPH,Wind Direction,Wind SpeedMPH,Gust SpeedMPH,PrecipitationIn,Events,Conditions,WindDirDegrees,DateUTC
12:53 AM,45.0,41.0,86,29.24,10.0,West,6.9,-,N/A,,Scattered Clouds,270,2012-10-16 08:53:00
1:53 AM,46.0,41.0,83,29.30,10.0,WSW,3.5,-,N/A,,Mostly Cloudy,240,2012-10-16 09:53:00
2:53 AM,46.0,42.1,86,29.34,10.0,Variable,3.5,-,N/A,,Overcast,0,2012-10-16 10:53:00
3:53 AM,46.0,41.0,83,29.38,10.0,WSW,5.8,-,0.00,,Overcast,250,2012-10-16 11:53:00
4:53 AM,44.1,39.9,85,29.42,10.0,Variable,3.5,-,0.00,,Overcast,0,2012-10-16 12:53:00
5:53 AM,42.1,39.0,89,29.45,10.0,Calm,Calm,-,N/A,,Partly Cloudy,0,2012-10-16 13:53:00
6:53 AM,44.1,37.9,79,29.50,10.0,SSW,5.8,18.4,N/A,,Mostly Cloudy,210,2012-10-16 14:53:00
7:53 AM,39.9,37.9,93,29.54,10.0,Calm,Calm,-,N/A,,Clear,0,2012-10-16 15:53:00
8:53 AM,45.0,37.0,74,29.59,10.0,WSW,5.8,-,0.00,,Mostly Cloudy,240,2012-10-16 16:53:00
9:53 AM,45.0,37.9,76,29.63,10.0,Variable,6.9,-,N/A,,Mostly Cloudy,0,2012-10-16 17:53:00
10:53 AM,45.0,36.0,71,29.68,10.0,Variable,4.6,-,0.00,,Mostly Cloudy,0,2012-10-16 18:53:00
11:53 AM,48.9,37.9,66,29.71,10.0,SSW,9.2,-,N/A,,Mostly Cloudy,200,2012-10-16 19:53:00
12:53 PM,48.0,36.0,63,29.75,10.0,SW,8.1,19.6,N/A,,Mostly Cloudy,230,2012-10-16 20:53:00
1:53 PM,48.9,37.9,66,29.78,10.0,Variable,6.9,-,0.00,,Scattered Clouds,0,2012-10-16 21:53:00
2:53 PM,46.0,42.1,86,29.81,10.0,Variable,3.5,-,0.03,,Mostly Cloudy,0,2012-10-16 22:53:00
3:53 PM,46.9,39.0,74,29.85,10.0,Variable,4.6,-,N/A,,Mostly Cloudy,0,2012-10-16 23:53:00
4:36 PM,44.6,39.2,81,29.87,10.0,Variable,4.6,-,0.00,Rain,Light Rain,0,2012-10-17 00:36:00
4:43 PM,44.6,39.2,81,29.87,10.0,Variable,6.9,-,0.00,Rain,Light Rain,0,2012-10-17 00:43:00
4:53 PM,44.1,41.0,89,29.88,10.0,West,5.8,-,0.00,Rain,Light Rain,280,2012-10-17 00:53:00
5:02 PM,44.6,39.2,81,29.88,10.0,Variable,4.6,-,0.01,Rain,Light Rain,0,2012-10-17 01:02:00
5:53 PM,44.1,39.0,82,29.91,10.0,Calm,Calm,-,0.01,,Mostly Cloudy,0,2012-10-17 01:53:00
6:53 PM,44.1,39.0,82,29.94,10.0,Calm,Calm,-,N/A,,Mostly Cloudy,0,2012-10-17 02:53:00
7:53 PM,45.0,37.9,76,29.97,10.0,WSW,8.1,-,N/A,,Overcast,240,2012-10-17 03:53:00
8:53 PM,44.1,37.9,79,29.99,10.0,Calm,Calm,-,N/A,,Overcast,0,2012-10-17 04:53:00
9:53 PM,41.0,39.0,93,30.02,10.0,Calm,Calm,-,N/A,,Mostly Cloudy,0,2012-10-17 05:53:00
10:53 PM,43.0,37.9,82,30.04,10.0,South,4.6,-,N/A,,Overcast,190,2012-10-17 06:53:00
11:53 PM,45.0,37.9,76,30.05,10.0,SSE,4.6,-,N/A,,Overcast,160,2012-10-17 07:53:00